W3EJE-13 Weather Reports


Display with metric or nautical units.
time (UTC)temp
F
wind
direction
speed
MPH
gust
MPH
rain 1hr
in
rain 24hr
in
rain mn
in
humidity
%
barometer
mb
20260906060028 60 254 0.0 0.0 0.00 0.00 0.00 99 1017.0
20260906055523 60 254 0.0 0.0 0.00 0.00 0.00 99 1017.3
20260906055019 60 254 0.0 0.0 0.00 0.00 0.00 99 1017.1
20260906054519 60 255 0.0 0.0 0.00 0.00 0.00 99 1016.9
20260906054014 60 255 0.0 0.0 0.00 0.00 0.00 99 1017.0
20260906053510 61 255 0.0 0.0 0.00 0.00 0.00 99 1017.3
20260906053005 61 255 0.0 0.0 0.00 0.00 0.00 99 1017.2
20260906052501 61 255 0.0 0.0 0.00 0.00 0.00 99 1017.1
20260906051958 61 255 0.0 0.0 0.00 0.00 0.00 99 1017.3
20260906051453 61 254 0.0 0.0 0.00 0.00 0.00 99 1017.2
20260906050949 61 254 0.0 0.0 0.00 0.00 0.00 99 1017.4
20260906050448 61 254 0.0 0.0 0.00 0.00 0.00 99 1017.4
20260906045948 61 254 0.0 0.0 0.00 0.00 0.00 99 1017.2
20260906045447 61 254 0.0 0.0 0.00 0.00 0.00 99 1017.4
20260906044943 61 255 0.0 0.0 0.00 0.00 0.00 99 1017.3
20260906044438 61 254 0.0 0.0 0.00 0.00 0.00 99 1017.4
20260906043933 61 254 0.0 0.0 0.00 0.00 0.00 99 1017.3
20260906043429 61 254 0.0 0.0 0.00 0.00 0.00 99 1017.1
20260906042925 61 254 0.0 0.0 0.00 0.00 0.00 99 1017.3
20260906042424 62 253 0.0 0.0 0.00 0.00 0.00 99 1017.4
20260906041919 62 253 0.0 0.0 0.00 0.00 0.00 99 1017.2
20260906041415 62 253 0.0 0.0 0.00 0.00 0.00 99 1017.3
20260906040915 62 254 0.0 0.0 0.00 0.00 0.00 99 1017.3
20260906040410 62 235 0.0 0.0 0.00 0.00 0.00 99 1017.4
20260906035905 62 237 0.0 0.0 0.00 0.06 0.06 99 1017.4
20260906035401 62 242 0.0 0.0 0.00 0.06 0.06 99 1017.6
20260906034856 62 256 0.0 0.0 0.00 0.06 0.06 99 1017.6
20260906034350 62 260 0.0 0.0 0.00 0.06 0.06 99 1017.4
20260906033846 62 253 0.0 0.0 0.00 0.06 0.06 99 1017.6
20260906033345 62 253 0.0 0.0 0.00 0.06 0.06 99 1017.8
20260906032842 63 253 0.0 0.0 0.00 0.06 0.06 99 1017.8
20260906032337 62 249 0.0 0.0 0.00 0.06 0.06 99 1017.8
20260906031832 62 253 0.0 0.0 0.00 0.06 0.06 99 1017.6
20260906031328 63 253 0.0 0.0 0.00 0.06 0.06 99 1017.8
20260906030827 63 247 0.0 0.0 0.00 0.06 0.06 99 1017.4
20260906030323 63 247 0.0 0.0 0.00 0.06 0.06 99 1017.4
20260906025817 63 250 0.0 0.0 0.00 0.06 0.06 99 1017.4
20260906025311 63 241 0.0 0.0 0.00 0.06 0.06 99 1017.7
20260906024810 63 245 0.0 0.0 0.00 0.06 0.06 99 1017.6
20260906024309 63 248 0.0 0.0 0.00 0.06 0.06 99 1017.3
20260906023805 63 254 0.0 0.0 0.00 0.06 0.06 99 1017.6
20260906023301 63 254 0.0 0.0 0.00 0.06 0.06 99 1017.3
20260906022756 63 254 0.0 0.0 0.00 0.06 0.06 99 1017.2
20260906022251 63 254 0.0 0.0 0.00 0.06 0.06 99 1017.4
20260906021747 64 255 0.0 0.0 0.00 0.06 0.06 99 1016.9
20260906021246 64 255 0.0 0.0 0.00 0.06 0.06 99 1016.9
20260906020741 64 256 0.0 0.0 0.00 0.06 0.06 99 1017.0
20260906020241 64 256 0.0 0.0 0.00 0.06 0.06 99 1017.1
20260906015735 65 256 0.0 0.0 0.00 0.06 0.06 99 1016.9
20260906015234 65 250 0.0 0.0 0.00 0.06 0.06 99 1016.8
20260906014729 65 250 0.0 0.0 0.00 0.06 0.06 99 1016.7
20260906014225 65 249 0.0 0.0 0.00 0.06 0.06 99 1016.9
20260906013721 66 253 0.0 0.0 0.00 0.06 0.06 99 1016.9
20260906013220 66 247 0.0 0.0 0.00 0.06 0.06 99 1016.9
20260906012715 66 252 0.0 0.0 0.00 0.06 0.06 99 1016.8
20260906012210 66 249 0.0 0.0 0.00 0.06 0.06 99 1016.9
20260906011706 66 252 0.0 0.0 0.00 0.06 0.06 99 1017.2
20260906011200 66 254 0.0 0.0 0.00 0.06 0.06 99 1016.8
20260906010655 67 247 0.0 0.0 0.00 0.06 0.06 99 1016.5
20260906010152 67 247 0.0 0.0 0.00 0.06 0.06 99 1016.5
20260906005651 67 247 0.0 0.0 0.00 0.06 0.06 99 1016.6
20260906005150 67 248 0.0 0.0 0.00 0.06 0.06 98 1016.7
20260906004649 68 250 0.0 0.0 0.00 0.06 0.06 98 1016.5
20260906004145 68 253 0.0 0.0 0.00 0.06 0.06 98 1016.7
20260906003640 68 251 0.0 0.0 0.00 0.06 0.06 97 1016.4
20260906003136 68 245 0.0 0.0 0.00 0.06 0.06 96 1016.5
20260906002630 68 249 0.0 0.0 0.00 0.06 0.06 95 1016.4
20260906002125 69 250 0.0 0.0 0.00 0.06 0.06 95 1016.3
20260906001621 69 255 0.0 0.0 0.00 0.06 0.06 94 1016.4
20260906001120 70 246 0.0 0.0 0.00 0.06 0.06 93 1016.5
20260906000616 70 248 0.0 0.0 0.00 0.06 0.06 92 1016.3
20260906000112 70 251 0.0 0.0 0.00 0.06 0.06 90 1016.2
20260905235610 70 252 0.0 0.0 0.00 0.06 0.06 90 1016.4
20260905235106 71 251 0.0 0.0 0.00 0.06 0.06 88 1016.0
20260905234601 71 252 0.0 0.0 0.00 0.06 0.06 87 1016.3
20260905234056 72 251 0.0 0.0 0.00 0.06 0.06 86 1016.3
20260905233556 72 259 0.0 0.0 0.00 0.06 0.06 85 1016.2
20260905233051 72 255 0.0 0.0 0.00 0.06 0.06 85 1016.3
20260905232546 73 258 0.0 0.0 0.00 0.06 0.06 84 1016.1
20260905232042 73 270 0.0 0.0 0.00 0.06 0.06 82 1015.9
20260905231536 74 259 0.0 0.0 0.00 0.06 0.06 82 1015.7
20260905231033 74 260 0.0 0.0 0.00 0.06 0.06 81 1016.2
20260905230532 74 260 2.0 2.0 0.00 0.06 0.06 81 1015.9
20260905230031 74 295 3.0 3.0 0.00 0.06 0.06 81 1015.7
20260905225525 74 297 3.0 3.0 0.00 0.06 0.06 80 1015.9
20260905225021 75 264 2.0 2.0 0.00 0.06 0.06 80 1015.7
20260905224515 75 270 5.0 5.0 0.00 0.06 0.06 80 1015.9
20260905224015 75 272 3.0 3.0 0.00 0.06 0.06 80 1015.7
20260905223512 76 268 4.0 5.0 0.00 0.06 0.06 78 1015.6
20260905223008 76 269 2.0 2.0 0.00 0.06 0.06 77 1015.7
20260905222502 76 258 3.0 3.0 0.00 0.06 0.06 79 1015.4
20260905221957 76 273 2.0 3.0 0.00 0.06 0.06 80 1015.5
20260905221454 76 275 3.0 3.0 0.00 0.06 0.06 79 1015.6
20260905220949 76 292 4.0 5.0 0.00 0.06 0.06 79 1015.4
20260905220446 76 259 3.0 3.0 0.00 0.06 0.06 79 1015.3
20260905215944 76 230 3.0 3.0 0.00 0.06 0.06 79 1015.3
20260905215440 77 4 3.0 5.0 0.00 0.06 0.06 77 1015.0
20260905214937 77 333 5.0 6.0 0.00 0.06 0.06 80 1015.0
20260905214432 79 272 0.0 0.0 0.00 0.06 0.06 77 1015.1
20260905213932 78 255 0.0 1.0 0.00 0.06 0.06 78 1015.1
20260905213428 77 5 7.0 9.0 0.00 0.06 0.06 81 1015.1
20260905212923 77 343 13.0 16.0 0.00 0.06 0.06 82 1015.1
20260905212418 77 259 5.0 6.0 0.00 0.06 0.06 81 1014.8
20260905211917 76 19 4.0 5.0 0.00 0.06 0.06 80 1014.9
20260905211413 76 197 6.0 8.0 0.00 0.06 0.06 81 1015.2
20260905210909 77 317 7.0 9.0 0.00 0.06 0.06 79 1015.0
20260905210409 77 281 1.0 2.0 0.00 0.06 0.06 78 1014.9
20260905205908 77 274 5.0 6.0 0.00 0.06 0.06 79 1014.7
20260905205403 76 337 7.0 9.0 0.00 0.06 0.06 82 1015.1
20260905204902 76 277 6.0 7.0 0.00 0.06 0.06 80 1015.1
20260905204359 76 354 6.0 7.0 0.00 0.06 0.06 81 1015.1
20260905203857 78 274 5.0 5.0 0.00 0.06 0.06 82 1015.1
20260905203353 77 314 3.0 5.0 0.00 0.06 0.06 82 1015.2
20260905202848 78 24 0.0 1.0 0.00 0.06 0.06 81 1015.0
20260905202343 77 252 0.0 0.0 0.00 0.06 0.06 82 1015.1
20260905201839 77 255 3.0 3.0 0.00 0.06 0.06 83 1015.3
20260905201334 76 279 1.0 2.0 0.00 0.06 0.06 84 1015.2
20260905200828 77 275 4.0 5.0 0.00 0.06 0.06 84 1015.4
20260905200326 78 275 1.0 1.0 0.00 0.06 0.06 80 1015.3
20260905195822 77 287 3.0 5.0 0.00 0.06 0.06 81 1015.4
20260905195317 76 291 5.0 8.0 0.00 0.06 0.06 80 1015.6
20260905194814 75 296 6.0 6.0 0.00 0.06 0.06 82 1015.3
20260905194313 76 334 5.0 7.0 0.00 0.06 0.06 82 1015.4
20260905193812 76 290 3.0 3.0 0.00 0.06 0.06 80 1015.3
20260905193307 77 20 7.0 8.0 0.00 0.06 0.06 80 1015.3
20260905192803 77 281 5.0 6.0 0.00 0.06 0.06 83 1015.3
20260905192259 77 307 4.0 5.0 0.00 0.06 0.06 82 1015.4
20260905191758 76 310 2.0 2.0 0.00 0.06 0.06 84 1015.4
20260905191256 75 327 6.0 8.0 0.00 0.06 0.06 85 1015.5
20260905190755 75 254 5.0 6.0 0.00 0.06 0.06 87 1015.4
20260905190255 75 274 6.0 7.0 0.00 0.06 0.06 86 1015.4
20260905185754 75 353 5.0 6.0 0.00 0.06 0.06 85 1015.6
20260905185248 77 279 11.0 14.0 0.00 0.06 0.06 81 1015.9
20260905184742 78 330 9.0 10.0 0.00 0.06 0.06 79 1015.4
20260905184242 77 343 9.0 11.0 0.00 0.06 0.06 81 1015.7
20260905183741 77 326 8.0 8.0 0.00 0.06 0.06 82 1015.5
20260905183237 77 293 9.0 11.0 0.00 0.06 0.06 81 1015.6
20260905182731 77 321 8.0 10.0 0.00 0.06 0.06 81 1015.7
20260905182230 78 313 5.0 6.0 0.00 0.06 0.06 80 1015.7
20260905181726 77 16 5.0 6.0 0.00 0.06 0.06 83 1016.0
20260905181224 77 344 10.0 13.0 0.00 0.06 0.06 81 1015.6
20260905180720 77 286 5.0 6.0 0.00 0.06 0.06 82 1015.7
20260905180215 77 290 7.0 9.0 0.00 0.06 0.06 82 1016.0
20260905175715 77 265 5.0 6.0 0.00 0.06 0.06 83 1015.9
20260905175209 77 252 4.0 6.0 0.00 0.06 0.06 85 1015.9
20260905174705 76 272 5.0 7.0 0.00 0.06 0.06 82 1016.0
20260905174200 75 340 7.0 9.0 0.00 0.06 0.06 85 1016.0
20260905173656 76 293 4.0 5.0 0.00 0.06 0.06 85 1015.9
20260905173152 75 271 3.0 3.0 0.00 0.06 0.06 85 1016.3
20260905172651 75 7 7.0 9.0 0.00 0.06 0.06 85 1016.1
20260905172145 75 298 0.0 0.0 0.00 0.06 0.06 88 1016.1
20260905171641 74 309 0.0 0.0 0.00 0.06 0.06 87 1016.3
20260905171137 74 263 0.0 0.0 0.00 0.06 0.06 86 1016.2
20260905170634 74 308 0.0 0.0 0.00 0.06 0.06 87 1016.5
20260905170129 74 300 0.0 0.0 0.00 0.06 0.06 88 1016.6
20260905165623 75 259 0.0 0.0 0.00 0.06 0.06 87 1016.5
20260905165118 74 296 0.0 0.0 0.00 0.06 0.06 87 1016.4
20260905164608 74 269 0.0 0.0 0.00 0.06 0.06 89 1016.6
20260905164107 74 274 0.0 0.0 0.00 0.06 0.06 89 1016.9
20260905163603 73 298 0.0 0.0 0.00 0.06 0.06 90 1016.5
20260905163100 74 271 0.0 0.0 0.00 0.06 0.06 91 1016.4
20260905162555 73 278 0.0 0.0 0.00 0.06 0.06 91 1016.5
20260905162055 73 285 0.0 0.0 0.00 0.06 0.06 91 1016.8
20260905161549 73 262 0.0 0.0 0.00 0.06 0.06 91 1016.6
20260905161047 74 263 0.0 0.0 0.00 0.06 0.06 91 1016.7
20260905160545 73 265 0.0 0.0 0.00 0.06 0.06 94 1017.0
20260905160040 72 269 0.0 0.0 0.00 0.06 0.06 95 1016.9
20260905155540 71 268 0.0 0.0 0.00 0.06 0.06 97 1016.9
20260905155038 70 262 0.0 0.0 0.00 0.06 0.06 98 1016.9
20260905154534 70 264 0.0 0.0 0.00 0.06 0.06 99 1016.9
20260905154029 70 259 0.0 0.0 0.00 0.06 0.06 99 1016.8
20260905153525 70 259 0.0 0.0 0.00 0.06 0.06 99 1017.1
20260905153020 69 258 0.0 0.0 0.00 0.06 0.06 99 1017.6
20260905152519 70 260 0.0 0.0 0.00 0.06 0.06 99 1017.1
20260905152015 70 257 0.0 0.0 0.00 0.06 0.06 99 1017.2
20260905151510 69 258 0.0 0.0 0.00 0.06 0.06 99 1017.6
20260905151005 69 259 0.0 0.0 0.00 0.06 0.06 99 1017.4
20260905150500 69 257 0.0 0.0 0.00 0.06 0.06 99 1017.1
20260905145956 69 256 0.0 0.0 0.00 0.06 0.06 99 1017.3
20260905145451 69 258 0.0 0.0 0.00 0.06 0.06 99 1017.2
20260905144950 69 255 0.0 0.0 0.00 0.06 0.06 99 1017.3
20260905144446 69 258 0.0 0.0 0.00 0.06 0.06 99 1017.3
20260905143945 69 259 0.0 0.0 0.00 0.06 0.06 99 1017.4
20260905143444 69 259 0.0 0.0 0.00 0.06 0.06 99 1017.3
20260905142939 69 259 0.0 0.0 0.00 0.06 0.06 99 1017.4
20260905142438 69 260 0.0 0.0 0.00 0.06 0.06 99 1017.2
20260905141933 69 258 0.0 0.0 0.00 0.06 0.06 99 1017.2
20260905141428 69 257 0.0 0.0 0.00 0.06 0.06 99 1017.1
20260905140924 69 258 0.0 0.0 0.00 0.06 0.06 99 1017.2
20260905140420 69 258 0.0 0.0 0.00 0.06 0.06 99 1017.4
20260905135918 69 258 0.0 0.0 0.00 0.06 0.06 99 1017.1
20260905135414 69 258 0.0 0.0 0.07 0.06 0.06 99 1016.8
20260905134909 69 257 0.0 0.0 0.35 0.06 0.06 99 1017.1
20260905134408 69 258 0.0 0.0 0.28 0.05 0.05 99 1017.0
20260905133903 69 254 0.0 0.0 0.00 0.00 0.00 99 1016.9
20260905133358 68 258 0.0 0.0 0.00 0.00 0.00 99 1016.7
20260905132857 68 257 0.0 0.0 0.00 0.00 0.00 99 1016.7
20260905132352 68 258 0.0 0.0 0.00 0.00 0.00 99 1016.9
20260905131846 68 254 0.0 0.0 0.00 0.00 0.00 99 1016.9
20260905131342 68 257 0.0 0.0 0.00 0.00 0.00 99 1016.8
20260905130837 68 256 0.0 0.0 0.00 0.00 0.00 99 1016.7
20260905130336 68 258 0.0 0.0 0.00 0.00 0.00 99 1016.7
20260905125832 68 257 0.0 0.0 0.00 0.00 0.00 99 1016.8
20260905125326 68 255 0.0 0.0 0.00 0.00 0.00 99 1017.0
20260905124823 67 258 0.0 0.0 0.00 0.00 0.00 99 1016.7
20260905124319 67 258 0.0 0.0 0.00 0.00 0.00 99 1016.6
20260905123813 67 258 0.0 0.0 0.00 0.00 0.00 99 1016.7
20260905123310 67 258 0.0 0.0 0.00 0.00 0.00 99 1016.9
20260905122809 67 258 0.0 0.0 0.00 0.00 0.00 99 1016.9
20260905122309 67 258 0.0 0.0 0.00 0.00 0.00 99 1016.9
20260905121805 67 262 0.0 0.0 0.00 0.00 0.00 99 1016.8
20260905121301 67 256 0.0 0.0 0.00 0.00 0.00 99 1016.9
20260905120800 67 258 0.0 0.0 0.00 0.00 0.00 99 1016.9
20260905120300 66 258 0.0 0.0 0.00 0.00 0.00 99 1016.7
20260905115755 66 257 0.0 0.0 0.00 0.00 0.00 99 1016.7
20260905115255 66 258 0.0 0.0 0.00 0.00 0.00 99 1016.5
20260905114754 66 258 0.0 0.0 0.00 0.00 0.00 99 1016.1
20260905114253 66 257 0.0 0.0 0.00 0.00 0.00 99 1016.2
20260905113752 66 258 0.0 0.0 0.00 0.00 0.00 99 1016.3
20260905113243 66 258 0.0 0.0 0.00 0.00 0.00 99 1016.5
20260905112738 66 257 0.0 0.0 0.00 0.00 0.00 99 1016.1
20260905112238 66 253 0.0 0.0 0.00 0.00 0.00 99 1016.2
20260905111733 66 254 0.0 0.0 0.00 0.00 0.00 99 1016.4
20260905111227 65 256 0.0 0.0 0.00 0.00 0.00 99 1016.6
20260905110726 65 256 0.0 0.0 0.00 0.00 0.00 99 1016.5
20260905110221 65 256 0.0 0.0 0.00 0.00 0.00 99 1016.3
20260905105716 65 256 0.0 0.0 0.00 0.00 0.00 99 1016.4
20260905105215 65 256 0.0 0.0 0.00 0.00 0.00 99 1016.5
20260905104710 65 256 0.0 0.0 0.00 0.00 0.00 99 1016.1
20260905104207 64 256 0.0 0.0 0.00 0.00 0.00 99 1016.3
20260905103701 65 256 0.0 0.0 0.00 0.00 0.00 99 1016.0
20260905103157 65 254 0.0 0.0 0.00 0.00 0.00 99 1016.1
20260905102653 65 254 0.0 0.0 0.00 0.00 0.00 99 1016.1
20260905102149 65 255 0.0 0.0 0.00 0.00 0.00 99 1016.0
20260905101648 65 258 0.0 0.0 0.00 0.00 0.00 99 1016.1
20260905101146 65 259 0.0 0.0 0.00 0.00 0.00 99 1016.3
20260905100642 65 260 0.0 0.0 0.00 0.00 0.00 99 1016.4
20260905100137 65 259 0.0 0.0 0.00 0.00 0.00 99 1016.2
20260905095631 66 256 0.0 0.0 0.00 0.00 0.00 99 1015.7
20260905095126 66 252 0.0 0.0 0.00 0.00 0.00 99 1016.0
20260905094621 65 255 0.0 0.0 0.00 0.00 0.00 99 1016.1
20260905094120 65 255 0.0 0.0 0.00 0.00 0.00 99 1015.9
20260905093620 65 259 0.0 0.0 0.00 0.00 0.00 99 1016.1
20260905093116 65 254 0.0 0.0 0.00 0.00 0.00 99 1016.0
20260905092610 65 255 0.0 0.0 0.00 0.00 0.00 99 1016.0
20260905092107 65 259 0.0 0.0 0.00 0.00 0.00 99 1016.0
20260905091606 65 258 0.0 0.0 0.00 0.00 0.00 99 1015.9
20260905091101 66 253 0.0 0.0 0.00 0.00 0.00 99 1015.7
20260905090601 65 251 0.0 0.0 0.00 0.00 0.00 99 1016.0
20260905090056 66 258 0.0 0.0 0.00 0.00 0.00 99 1016.2
20260905085554 66 251 0.0 0.0 0.00 0.00 0.00 99 1016.0
20260905085050 66 254 0.0 0.0 0.00 0.00 0.00 99 1015.7
20260905084550 65 259 0.0 0.0 0.00 0.00 0.00 99 1016.0
20260905084045 66 259 0.0 0.0 0.00 0.00 0.00 99 1016.0
20260905083539 66 259 0.0 0.0 0.00 0.00 0.00 99 1015.7
20260905083036 66 262 0.0 0.0 0.00 0.00 0.00 99 1015.5
20260905082531 66 261 0.0 0.0 0.00 0.00 0.00 99 1015.6
20260905082027 66 262 0.0 0.0 0.00 0.00 0.00 99 1015.9
20260905081526 66 263 0.0 0.0 0.00 0.00 0.00 99 1015.9
20260905081021 66 253 0.0 0.0 0.00 0.00 0.00 99 1015.9
20260905080521 66 245 0.0 0.0 0.00 0.00 0.00 99 1016.0
20260905080017 66 261 0.0 0.0 0.00 0.00 0.00 99 1016.0
20260905075509 66 258 0.0 0.0 0.00 0.00 0.00 99 1016.4
20260905075008 66 241 0.0 0.0 0.00 0.00 0.00 99 1016.2
20260905074503 66 263 0.0 0.0 0.00 0.00 0.00 99 1016.6
20260905073953 66 260 0.0 0.0 0.00 0.00 0.00 99 1016.6
20260905073448 65 257 0.0 0.0 0.00 0.00 0.00 99 1016.7
20260905072944 65 264 0.0 0.0 0.00 0.00 0.00 99 1016.5
20260905072438 65 265 0.0 0.0 0.00 0.00 0.00 99 1016.5
20260905071934 65 264 0.0 0.0 0.00 0.00 0.00 99 1016.5
20260905071431 66 263 0.0 0.0 0.00 0.00 0.00 99 1016.4
20260905070930 66 260 0.0 0.0 0.00 0.00 0.00 99 1016.5
20260905070427 66 262 0.0 0.0 0.00 0.00 0.00 99 1016.8
20260905065926 65 257 0.0 0.0 0.00 0.00 0.00 99 1017.1
20260905065424 65 258 0.0 0.0 0.00 0.00 0.00 99 1016.9
20260905064920 65 262 0.0 0.0 0.00 0.00 0.00 99 1017.0
20260905064415 66 259 0.0 0.0 0.00 0.00 0.00 99 1017.3
20260905063909 66 257 0.0 0.0 0.00 0.00 0.00 99 1017.2
20260905063404 65 257 0.0 0.0 0.00 0.00 0.00 99 1017.1
20260905062900 65 262 0.0 0.0 0.00 0.00 0.00 99 1017.4
20260905062354 65 262 0.0 0.0 0.00 0.00 0.00 99 1017.3
20260905061849 66 260 0.0 0.0 0.00 0.00 0.00 99 1017.8
20260905061349 66 259 0.0 0.0 0.00 0.00 0.00 99 1017.6
20260905060843 66 254 0.0 0.0 0.00 0.00 0.00 99 1017.6
20260905060340 65 262 0.0 0.0 0.00 0.00 0.00 99 1017.4